Location: L�tisburg
(47.3947°N, 9.0820°E)
Time: 02:01:13
(UTC+00:00)

Cosmos 1707 Rocket - Pass Details

Date: 25 June 2021
Orbit: 604 x 632 km, 82.5° (Epoch: 02 August)

Event Time Altitude Azimuth Distance (km) Brightness Sun altitude
Rises 01:31:00 0° 9° (N) 2,899 8.4 -13.9°
Reaches altitude 10° 01:34:58 10° 45° (NE) 1,979 7.5 -13.5°
Maximum altitude 01:36:16 11° 62° (ENE) 1,898 7.0 -13.4°
Drops below altitude 10° 01:37:34 10° 80° (E) 1,969 6.7 -13.3°
Sets 01:41:28 0° 116° (ESE) 2,860 7.1 -13.0°
